TimePST,TemperatureF,Dew PointF,Humidity,Sea Level PressureIn,VisibilityMPH,Wind Direction,Wind SpeedMPH,Gust SpeedMPH,PrecipitationIn,Events,Conditions,WindDirDegrees,DateUTC
12:55 AM,61.0,19.0,20,30.07,10.0,ENE,6.9,-,N/A,,Clear,60,2013-01-23 08:55:00
1:55 AM,57.0,25.0,29,30.06,10.0,ENE,3.5,-,N/A,,Clear,60,2013-01-23 09:55:00
2:55 AM,61.0,21.0,21,30.06,10.0,ENE,9.2,-,N/A,,Clear,60,2013-01-23 10:55:00
3:55 AM,57.0,24.1,28,30.05,10.0,Calm,Calm,-,N/A,,Clear,0,2013-01-23 11:55:00
4:55 AM,53.1,30.0,41,30.04,10.0,Calm,Calm,-,N/A,,Clear,0,2013-01-23 12:55:00
5:55 AM,55.0,28.9,37,30.04,10.0,Calm,Calm,-,N/A,,Clear,0,2013-01-23 13:55:00
6:55 AM,57.0,26.1,30,30.04,10.0,NNE,4.6,-,N/A,,Clear,30,2013-01-23 14:55:00
7:55 AM,64.0,21.9,20,30.04,10.0,NE,10.4,-,N/A,,Clear,40,2013-01-23 15:55:00
8:55 AM,61.0,32.0,34,30.05,10.0,Calm,Calm,-,N/A,,Clear,0,2013-01-23 16:55:00
9:55 AM,64.9,34.0,32,30.06,10.0,West,4.6,-,N/A,,Clear,270,2013-01-23 17:55:00
10:55 AM,72.0,33.1,24,30.07,10.0,Calm,Calm,-,N/A,,Clear,0,2013-01-23 18:55:00
11:55 AM,75.0,37.9,26,30.05,10.0,SSW,5.8,-,N/A,,Clear,200,2013-01-23 19:55:00
1:55 PM,69.1,43.0,39,30.03,8.0,West,3.5,-,N/A,,Scattered Clouds,260,2013-01-23 21:55:00
2:55 PM,71.1,37.0,29,30.04,10.0,SSW,6.9,-,N/A,,Overcast,210,2013-01-23 22:55:00
3:55 PM,68.0,35.1,30,30.05,10.0,West,5.8,-,N/A,,Mostly Cloudy,280,2013-01-23 23:55:00
4:55 PM,64.0,36.0,35,30.06,10.0,NW,5.8,-,N/A,,Overcast,310,2013-01-24 00:55:00
5:55 PM,63.0,41.0,45,30.10,10.0,SSE,4.6,-,N/A,,Mostly Cloudy,160,2013-01-24 01:55:00
6:55 PM,62.1,41.0,46,30.09,10.0,SSE,4.6,-,N/A,,Overcast,150,2013-01-24 02:55:00
7:55 PM,60.1,42.1,51,30.09,10.0,Calm,Calm,-,N/A,,Overcast,0,2013-01-24 03:55:00
8:55 PM,59.0,48.0,67,30.10,10.0,East,5.8,-,0.00,Rain,Light Rain,100,2013-01-24 04:55:00
9:55 PM,59.0,46.9,64,30.13,10.0,East,6.9,-,0.00,Rain,Light Rain,80,2013-01-24 05:55:00
10:55 PM,57.0,48.0,72,30.13,10.0,ENE,8.1,-,0.02,Rain,Light Rain,60,2013-01-24 06:55:00
11:55 PM,57.9,46.9,67,30.12,8.0,ENE,21.9,29.9,0.02,Rain,Rain,60,2013-01-24 07:55:00